Weather History for KLJF - May, 2012

Change the Weather History Date:

Saturday, May 5, 2012

  Actual Average Record
Temperature  
Mean Temperature 54 °F -  
Max Temperature 59 °F 69 °F 89 °F (2000)
Min Temperature 48 °F 42 °F 26 °F (1967)
Degree Days  
Heating Degree Days 12    
Growing Degree Days 4 (Base 50)    
Moisture  
Dew Point 52 °F    
Average Humidity 95    
Maximum Humidity 100    
Minimum Humidity 87    
Precipitation  
Precipitation 0.25 in - - ()
Sea Level Pressure  
Sea Level Pressure 29.96 in    
Wind  
Wind Speed 9 mph (NE)    
Max Wind Speed 18 mph    
Max Gust Speed 23 mph    
Visibility 8 miles    
Events Rain , Thunderstorm    
Averages and records for this station are not official NWS values.
T = Trace of Precipitation, MM = Missing Value Source: NWS Daily Summary

Daily Weather History Graph

Daily Weather History Graph

Search for Another Location

Airport or City:

Trip Planner

Search our weather history database for the weather conditions in past years. The results will help you decide how hot, cold, wet, or windy it might be!

Date:

Astronomy

May. 05, 2012 Rise Set
Actual Time 6:00 AM CDT 8:29 PM CDT
Civil Twilight 5:27 AM CDT 9:02 PM CDT
Nautical Twilight 4:46 AM CDT 9:44 PM CDT
Astronomical Twilight 3:59 AM CDT 10:31 PM CDT
Moon 8:24 PM CDT (5/5) 5:24 AM CDT (5/5)
Length of Visible Light 15h 34m
Length of Day
14h 28m
Full, 100% of the Moon is Illuminated
May 5
Full
May 5
Full
May 12
Last Quarter
May 20
New
May 28
First Quarter

Hourly Weather History & Observations

Time (CDT) Temp. Dew Point Humidity Pressure Visibility Wind Dir Wind Speed Gust Speed Precip Events Conditions
12:13 AM 51.8 °F 48.2 °F 88% 29.96 in 10.0 mi NE 6.9 mph - N/A   Overcast
12:33 AM 51.8 °F 48.2 °F 88% 29.96 in 10.0 mi NE 8.1 mph - N/A   Overcast
12:53 AM 51.8 °F 48.2 °F 88% 29.97 in 10.0 mi NNE 8.1 mph - N/A   Overcast
1:13 AM 51.8 °F 48.2 °F 88% 29.97 in 10.0 mi NE 8.1 mph - N/A   Overcast
1:33 AM 51.8 °F 48.2 °F 88% 29.97 in 10.0 mi NE 8.1 mph - N/A   Overcast
1:52 AM 51.8 °F 48.2 °F 88% 29.96 in 10.0 mi NE 6.9 mph - N/A   Overcast
2:13 AM 51.8 °F 48.2 °F 88% 29.97 in 10.0 mi NNE 6.9 mph - N/A   Overcast
2:33 AM 50.0 °F 46.4 °F 87% 29.98 in 10.0 mi NNE 6.9 mph - N/A   Overcast
2:53 AM 50.0 °F 46.4 °F 87% 29.97 in 10.0 mi NNE 6.9 mph - N/A   Overcast
3:13 AM 50.0 °F 46.4 °F 87% 29.97 in 10.0 mi NE 6.9 mph - N/A   Overcast
3:33 AM 50.0 °F 46.4 °F 87% 29.97 in 10.0 mi NNE 6.9 mph - N/A   Overcast
3:53 AM 50.0 °F 46.4 °F 87% 29.98 in 10.0 mi NNE 8.1 mph - N/A   Overcast
4:13 AM 50.0 °F 46.4 °F 87% 29.97 in 10.0 mi NE 5.8 mph - N/A   Overcast
4:33 AM 50.0 °F 48.2 °F 94% 29.96 in 10.0 mi NE 4.6 mph - N/A   Overcast
4:53 AM 50.0 °F 48.2 °F 94% 29.96 in 10.0 mi NE 5.8 mph - N/A   Overcast
5:13 AM 50.0 °F 48.2 °F 94% 29.96 in 10.0 mi NE 6.9 mph - N/A   Overcast
5:32 AM 50.0 °F 48.2 °F 94% 29.96 in 10.0 mi NE 8.1 mph - N/A   Overcast
5:53 AM 50.0 °F 48.2 °F 94% 29.97 in 10.0 mi ENE 8.1 mph - N/A   Overcast
6:13 AM 50.0 °F 48.2 °F 94% 29.97 in 7.0 mi NE 6.9 mph - N/A   Overcast
6:32 AM 48.2 °F 48.2 °F 100% 29.97 in 2.5 mi NE 10.4 mph - N/A   Overcast
6:53 AM 48.2 °F 48.2 °F 100% 29.98 in 2.5 mi NE 6.9 mph - N/A   Overcast
7:13 AM 48.2 °F 48.2 °F 100% 29.98 in 3.0 mi NE 9.2 mph - N/A   Overcast
7:33 AM 48.2 °F 48.2 °F 100% 29.98 in 3.0 mi NE 8.1 mph - N/A   Overcast
7:53 AM 48.2 °F 48.2 °F 100% 29.98 in 3.0 mi NE 10.4 mph - N/A   Overcast
8:13 AM 50.0 °F 50.0 °F 100% 29.98 in 4.0 mi NE 9.2 mph - N/A   Overcast
8:33 AM 50.0 °F 50.0 °F 100% 29.97 in 4.0 mi ENE 9.2 mph - N/A   Overcast
8:53 AM 51.8 °F 51.8 °F 100% 29.98 in 3.0 mi ENE 10.4 mph - N/A   Overcast
9:13 AM 51.8 °F 51.8 °F 100% 29.99 in 3.0 mi ENE 6.9 mph - N/A   Overcast
9:33 AM 51.8 °F 51.8 °F 100% 30.00 in 4.0 mi NE 11.5 mph - N/A   Overcast
9:53 AM 51.8 °F 51.8 °F 100% 30.00 in 3.0 mi ENE 8.1 mph - N/A   Overcast
10:13 AM 53.6 °F 53.6 °F 100% 29.98 in 3.0 mi ENE 9.2 mph - N/A   Overcast
10:33 AM 53.6 °F 53.6 °F 100% 30.00 in 5.0 mi ENE 8.1 mph - N/A   Overcast
10:53 AM 53.6 °F 53.6 °F 100% 30.01 in 7.0 mi ENE 9.2 mph - N/A   Overcast
11:12 AM 53.6 °F 53.6 °F 100% 30.00 in 7.0 mi ENE 8.1 mph - N/A   Overcast
11:33 AM 55.4 °F 53.6 °F 94% 30.01 in 7.0 mi ENE 8.1 mph - N/A   Overcast
11:53 AM 55.4 °F 53.6 °F 94% 30.01 in 10.0 mi NE 6.9 mph - N/A   Overcast
12:12 PM 55.4 °F 53.6 °F 94% 30.01 in 10.0 mi NE 10.4 mph - N/A   Overcast
12:33 PM 55.4 °F 53.6 °F 94% 30.00 in 10.0 mi NE 9.2 mph - N/A   Overcast
12:53 PM 53.6 °F 53.6 °F 100% 30.02 in 10.0 mi NNE 8.1 mph - N/A Rain , Thunderstorm Light Thunderstorms and Rain
1:12 PM 53.6 °F 53.6 °F 100% 30.07 in 10.0 mi West 5.8 mph - 0.03 in Rain , Thunderstorm Rain
1:33 PM 53.6 °F 53.6 °F 100% 30.06 in 10.0 mi Calm Calm - 0.08 in Rain , Thunderstorm Light Thunderstorms and Rain
1:53 PM 53.6 °F 53.6 °F 100% 30.04 in 7.0 mi East 10.4 mph - 0.03 in Rain , Thunderstorm Rain
2:13 PM 53.6 °F 53.6 °F 100% 29.94 in 10.0 mi East 16.1 mph - 0.08 in Rain , Thunderstorm Light Thunderstorms and Rain
2:33 PM 53.6 °F 53.6 °F 100% 29.99 in 10.0 mi NNE 10.4 mph 17.3 mph 0.10 in Rain , Thunderstorm Light Thunderstorms and Rain
2:53 PM 53.6 °F 53.6 °F 100% 29.92 in 10.0 mi ENE 13.8 mph 23.0 mph N/A Rain Light Rain
3:13 PM 55.4 °F 53.6 °F 94% 29.93 in 10.0 mi NE 12.7 mph 18.4 mph N/A   Scattered Clouds
3:33 PM 55.4 °F 53.6 °F 94% 29.91 in 10.0 mi NE 15.0 mph 20.7 mph N/A   Scattered Clouds
3:53 PM 55.4 °F 55.4 °F 100% 29.91 in 10.0 mi ENE 13.8 mph 18.4 mph N/A   Clear
4:13 PM 57.2 °F 55.4 °F 94% 29.91 in 10.0 mi ENE 15.0 mph 20.7 mph N/A   Scattered Clouds
4:33 PM 57.2 °F 55.4 °F 94% 29.90 in 10.0 mi ENE 18.4 mph 21.9 mph N/A   Mostly Cloudy
4:52 PM 57.2 °F 55.4 °F 94% 29.91 in 10.0 mi East 11.5 mph 20.7 mph N/A   Mostly Cloudy
5:13 PM 59.0 °F 55.4 °F 88% 29.90 in 10.0 mi East 10.4 mph - N/A   Mostly Cloudy
5:52 PM 57.2 °F 55.4 °F 94% 29.93 in 10.0 mi ENE 9.2 mph - N/A   Overcast
6:13 PM 59.0 °F 55.4 °F 88% 29.93 in 10.0 mi East 12.7 mph - N/A   Overcast
6:33 PM 57.2 °F 55.4 °F 94% 29.92 in 10.0 mi East 12.7 mph 19.6 mph N/A   Overcast
6:52 PM 57.2 °F 55.4 °F 94% 29.93 in 10.0 mi ESE 10.4 mph - N/A   Overcast
7:13 PM 57.2 °F 55.4 °F 94% 29.95 in 10.0 mi ENE 4.6 mph - N/A   Overcast
7:33 PM 57.2 °F 55.4 °F 94% 29.95 in 10.0 mi East 5.8 mph - N/A   Overcast
7:53 PM 57.2 °F 55.4 °F 94% 29.94 in 10.0 mi East 6.9 mph - N/A   Overcast
8:13 PM 57.2 °F 55.4 °F 94% 29.93 in 10.0 mi East 8.1 mph - N/A   Overcast
8:33 PM 57.2 °F 55.4 °F 94% 29.93 in 10.0 mi ENE 6.9 mph - N/A   Overcast
8:53 PM 55.4 °F 55.4 °F 100% 29.93 in 10.0 mi East 9.2 mph - N/A   Overcast
9:13 PM 55.4 °F 55.4 °F 100% 29.92 in 10.0 mi ENE 9.2 mph - N/A   Overcast
9:33 PM 55.4 °F 55.4 °F 100% 29.93 in 10.0 mi ENE 10.4 mph - N/A   Overcast
9:53 PM 55.4 °F 53.6 °F 94% 29.92 in 10.0 mi East 11.5 mph - N/A   Overcast
10:13 PM 55.4 °F 53.6 °F 94% 29.93 in 10.0 mi ENE 11.5 mph - N/A Thunderstorm Overcast
10:53 PM 55.4 °F 53.6 °F 94% 29.94 in 7.0 mi NE 10.4 mph - N/A Thunderstorm Overcast
11:13 PM 53.6 °F 53.6 °F 100% 29.95 in 7.0 mi North 12.7 mph 17.3 mph 0.01 in Rain , Thunderstorm Light Thunderstorms and Rain
11:33 PM 53.6 °F 53.6 °F 100% 29.98 in 10.0 mi NNW 12.7 mph 17.3 mph 0.03 in Rain , Thunderstorm Light Thunderstorms and Rain
11:53 PM 53.6 °F 53.6 °F 100% 29.94 in 7.0 mi ENE 16.1 mph 20.7 mph 0.07 in Rain , Thunderstorm Thunderstorms and Rain